Location: Perryvale
(54.4667°N, 113.3833°W)
Time: 07:57:08
(UTC+00:00)

Transit 2A Rocket - Pass Details

Date: 22 May 2024
Orbit: 583 x 910 km, 66.7° (Epoch: 24 June)

Event Time Altitude Azimuth Distance (km) Brightness Sun altitude
Rises 10:09:20 0° 158° (SSE) 2,996 7.8 -7.6°
Reaches altitude 10° 10:12:42 10° 132° (SE) 2,160 7.3 -7.3°
Maximum altitude 10:15:02 13° 103° (ESE) 1,985 7.5 -7.1°
Drops below altitude 10° 10:17:27 10° 75° (ENE) 2,271 8.4 -6.9°
Sets 10:21:10 0° 50° (NE) 3,285 10.4 -6.6°
